TimeCST,TemperatureF,Dew PointF,Humidity,Sea Level PressureIn,VisibilityMPH,Wind Direction,Wind SpeedMPH,Gust SpeedMPH,PrecipitationIn,Events,Conditions,WindDirDegrees,DateUTC
12:12 AM,17.6,10.4,73,30.39,10.0,Calm,Calm,-,N/A,,Clear,0,2012-12-05 06:12:00
12:33 AM,15.8,10.4,79,30.39,10.0,Calm,Calm,-,N/A,,Clear,0,2012-12-05 06:33:00
12:53 AM,15.8,10.4,79,30.39,10.0,Calm,Calm,-,N/A,,Clear,0,2012-12-05 06:53:00
1:12 AM,15.8,10.4,79,30.39,10.0,Calm,Calm,-,N/A,,Clear,0,2012-12-05 07:12:00
1:52 AM,17.6,10.4,73,30.39,10.0,Calm,Calm,-,N/A,,Clear,0,2012-12-05 07:52:00
2:12 AM,15.8,10.4,79,30.39,10.0,Calm,Calm,-,N/A,,Clear,0,2012-12-05 08:12:00
2:32 AM,15.8,10.4,79,30.39,10.0,East,3.5,-,N/A,,Clear,80,2012-12-05 08:32:00
2:52 AM,15.8,10.4,79,30.39,10.0,Calm,Calm,-,N/A,,Clear,0,2012-12-05 08:52:00
3:13 AM,15.8,10.4,79,30.39,10.0,Calm,Calm,-,N/A,,Clear,0,2012-12-05 09:13:00
3:33 AM,14.0,10.4,86,30.39,10.0,Calm,Calm,-,N/A,,Clear,0,2012-12-05 09:33:00
3:52 AM,14.0,10.4,86,30.39,10.0,Calm,Calm,-,N/A,,Clear,0,2012-12-05 09:52:00
4:13 AM,14.0,10.4,86,30.40,10.0,Calm,Calm,-,N/A,,Clear,0,2012-12-05 10:13:00
4:33 AM,14.0,10.4,86,30.38,10.0,Calm,Calm,-,N/A,,Clear,0,2012-12-05 10:33:00
4:52 AM,14.0,10.4,86,30.38,10.0,Calm,Calm,-,N/A,,Clear,0,2012-12-05 10:52:00
5:13 AM,14.0,10.4,86,30.37,10.0,ESE,3.5,-,N/A,,Clear,120,2012-12-05 11:13:00
5:33 AM,14.0,10.4,86,30.37,10.0,ESE,4.6,-,N/A,,Clear,110,2012-12-05 11:33:00
5:52 AM,12.2,8.6,85,30.37,10.0,East,3.5,-,N/A,,Clear,100,2012-12-05 11:52:00
6:13 AM,12.2,8.6,85,30.37,10.0,East,4.6,-,N/A,,Clear,100,2012-12-05 12:13:00
6:33 AM,12.2,10.4,92,30.36,10.0,East,5.8,-,N/A,,Clear,80,2012-12-05 12:33:00
6:52 AM,12.2,10.4,92,30.36,10.0,East,4.6,-,N/A,,Clear,90,2012-12-05 12:52:00
8:32 AM,17.6,12.2,79,30.34,10.0,SE,6.9,-,N/A,,Clear,130,2012-12-05 14:32:00
8:53 AM,19.4,12.2,74,30.34,10.0,ESE,6.9,-,N/A,,Clear,120,2012-12-05 14:53:00
9:13 AM,21.2,15.8,80,30.32,10.0,SE,11.5,16.1,N/A,,Clear,130,2012-12-05 15:13:00
9:32 AM,23.0,15.8,74,30.32,10.0,SE,15.0,-,N/A,,Clear,130,2012-12-05 15:32:00
9:53 AM,23.0,15.8,74,30.32,10.0,SE,11.5,-,N/A,,Clear,130,2012-12-05 15:53:00
10:13 AM,24.8,15.8,69,30.30,10.0,ESE,12.7,18.4,N/A,,Clear,120,2012-12-05 16:13:00
10:32 AM,26.6,15.8,64,30.29,10.0,ESE,12.7,17.3,N/A,,Clear,120,2012-12-05 16:32:00
10:53 AM,26.6,14.0,59,30.27,10.0,SE,12.7,-,N/A,,Clear,130,2012-12-05 16:53:00
11:13 AM,28.4,15.8,59,30.25,10.0,ESE,12.7,16.1,N/A,,Clear,120,2012-12-05 17:13:00
11:32 AM,30.2,14.0,51,30.23,10.0,SE,12.7,-,N/A,,Clear,130,2012-12-05 17:32:00
11:52 AM,32.0,14.0,48,30.22,10.0,ESE,12.7,-,N/A,,Clear,120,2012-12-05 17:52:00
12:13 PM,32.0,14.0,48,30.21,10.0,SE,15.0,-,N/A,,Clear,130,2012-12-05 18:13:00
12:32 PM,33.8,14.0,44,30.20,10.0,SE,15.0,19.6,N/A,,Clear,130,2012-12-05 18:32:00
12:52 PM,33.8,14.0,44,30.19,10.0,SE,13.8,18.4,N/A,,Clear,130,2012-12-05 18:52:00
1:13 PM,33.8,15.8,48,30.17,10.0,SE,12.7,19.6,N/A,,Clear,130,2012-12-05 19:13:00
1:32 PM,35.6,15.8,44,30.15,10.0,SE,13.8,-,N/A,,Clear,140,2012-12-05 19:32:00
2:12 PM,35.6,15.8,44,30.12,10.0,SE,18.4,-,N/A,,Clear,130,2012-12-05 20:12:00
2:32 PM,35.6,15.8,44,30.11,10.0,SE,16.1,19.6,N/A,,Clear,130,2012-12-05 20:32:00
2:53 PM,35.6,15.8,44,30.10,10.0,SE,11.5,16.1,N/A,,Clear,130,2012-12-05 20:53:00
3:12 PM,35.6,15.8,44,30.09,10.0,SE,15.0,21.9,N/A,,Clear,140,2012-12-05 21:12:00
3:32 PM,35.6,15.8,44,30.08,10.0,SE,17.3,-,N/A,,Clear,130,2012-12-05 21:32:00
3:53 PM,35.6,15.8,44,30.08,10.0,SE,18.4,23.0,N/A,,Clear,130,2012-12-05 21:53:00
4:12 PM,33.8,17.6,52,30.06,10.0,SE,13.8,19.6,N/A,,Clear,130,2012-12-05 22:12:00
4:32 PM,33.8,17.6,52,30.06,10.0,SE,12.7,-,N/A,,Scattered Clouds,140,2012-12-05 22:32:00
4:53 PM,33.8,17.6,52,30.04,10.0,SE,12.7,25.3,N/A,,Scattered Clouds,130,2012-12-05 22:53:00
5:12 PM,33.8,17.6,52,30.03,10.0,SE,15.0,20.7,N/A,,Scattered Clouds,140,2012-12-05 23:12:00
5:32 PM,33.8,17.6,52,30.02,10.0,SE,16.1,21.9,N/A,,Scattered Clouds,140,2012-12-05 23:32:00
5:53 PM,33.8,17.6,52,30.00,10.0,SE,15.0,20.7,N/A,,Clear,140,2012-12-05 23:53:00
6:13 PM,33.8,17.6,52,29.99,10.0,SE,12.7,18.4,N/A,,Clear,140,2012-12-06 00:13:00
6:32 PM,35.6,17.6,48,29.98,10.0,SE,12.7,20.7,N/A,,Clear,140,2012-12-06 00:32:00
6:53 PM,35.6,19.4,52,29.98,10.0,SE,15.0,19.6,N/A,,Scattered Clouds,140,2012-12-06 00:53:00
7:13 PM,35.6,19.4,52,29.96,10.0,SSE,16.1,25.3,N/A,,Mostly Cloudy,150,2012-12-06 01:13:00
7:32 PM,35.6,19.4,52,29.96,10.0,SSE,16.1,21.9,N/A,,Overcast,150,2012-12-06 01:32:00
7:53 PM,35.6,19.4,52,29.95,10.0,SSE,16.1,21.9,N/A,,Mostly Cloudy,160,2012-12-06 01:53:00
8:12 PM,35.6,19.4,52,29.96,10.0,SSE,11.5,18.4,N/A,,Mostly Cloudy,160,2012-12-06 02:12:00
8:33 PM,37.4,21.2,52,29.95,10.0,SSE,12.7,19.6,N/A,,Scattered Clouds,160,2012-12-06 02:33:00
8:52 PM,37.4,21.2,52,29.94,10.0,SSE,13.8,19.6,N/A,,Scattered Clouds,160,2012-12-06 02:52:00
9:13 PM,37.4,21.2,52,29.94,10.0,SSE,17.3,23.0,N/A,,Scattered Clouds,160,2012-12-06 03:13:00
9:32 PM,37.4,21.2,52,29.94,10.0,SSE,11.5,25.3,N/A,,Scattered Clouds,160,2012-12-06 03:32:00
9:52 PM,37.4,23.0,56,29.93,10.0,SSE,18.4,27.6,N/A,,Scattered Clouds,160,2012-12-06 03:52:00
10:13 PM,37.4,23.0,56,29.92,10.0,SSE,15.0,24.2,N/A,,Scattered Clouds,160,2012-12-06 04:13:00
10:32 PM,37.4,23.0,56,29.92,10.0,SSE,15.0,21.9,N/A,,Scattered Clouds,160,2012-12-06 04:32:00
10:52 PM,37.4,24.8,60,29.90,10.0,SSE,16.1,21.9,N/A,,Scattered Clouds,160,2012-12-06 04:52:00
11:13 PM,37.4,24.8,60,29.89,10.0,SSE,15.0,21.9,N/A,,Mostly Cloudy,150,2012-12-06 05:13:00
11:32 PM,37.4,24.8,60,29.88,10.0,SSE,15.0,20.7,N/A,,Overcast,160,2012-12-06 05:32:00
11:52 PM,37.4,24.8,60,29.87,10.0,SSE,12.7,24.2,N/A,,Scattered Clouds,160,2012-12-06 05:52:00